Mountain Home, ID

7:09 PM MDT on September 20, 2017 (GMT -0600)
Mountain Home Air Force Base

Weather History for KMUO - October, 2013

Change the Weather History Date:

Friday, October 25, 2013

  Actual Average Record
Temperature  
Mean Temperature 51 °F 48 °F  
Max Temperature 68 °F 61 °F 81 °F (2005)
Min Temperature 33 °F 33 °F 11 °F (1919)
Degree Days  
Heating Degree Days 14 17  
Month to date heating degree days 399 308  
Cooling Degree Days 0 0  
Month to date cooling degree days 0 2  
Moisture  
Dew Point 30 °F    
Average Humidity 54    
Maximum Humidity 75    
Minimum Humidity 28    
Precipitation  
Precipitation 0.00 in 0.03 in 0.47 in (1996)
Month to date precipitation 0.09 0.58  
Sea Level Pressure  
Sea Level Pressure 30.21 in    
Wind  
Wind Speed 4 mph (NE)    
Max Wind Speed 8 mph    
Max Gust Speed -    
Visibility 10 miles    
Events      
T = Trace of Precipitation, MM = Missing Value Source: NWS Daily Summary

Daily Weather History Graph

Daily Weather History Graph

Search for Another Location

Airport or City:

Trip Planner

Search our weather history database for the weather conditions in past years. The results will help you decide how hot, cold, wet, or windy it might be!

Date:

Astronomy

Oct. 25, 2013 Rise Set
Actual Time 8:09 AM MDT 6:44 PM MDT
Civil Twilight 7:40 AM MDT 7:13 PM MDT
Nautical Twilight 7:07 AM MDT 7:46 PM MDT
Astronomical Twilight 6:34 AM MDT 8:19 PM MDT
Moon No Moon Rise 1:55 PM MDT (10/25)
Length of Visible Light 11h 33m
Length of Day
10h 35m
Waning Gibbous, 62% of the Moon is Illuminated
Oct 25
Waning Gibbous
Oct 26
Last Quarter
Nov 3
New
Nov 9
First Quarter
Nov 17
Full

Hourly Weather History & Observations

Time (MDT) Temp. Windchill Dew Point Humidity Pressure Visibility Wind Dir Wind Speed Gust Speed Precip Events Conditions
12:58 AM 42.4 °F - 30.4 °F 62% 30.13 in 10.0 mi North 2.3 mph - N/A   Clear
1:58 AM 39.4 °F - 29.3 °F 67% 30.14 in 10.0 mi NNE 2.3 mph - N/A   Clear
2:58 AM 37.6 °F 34.0 °F 28.0 °F 68% 30.15 in 10.0 mi ENE 4.6 mph - N/A   Clear
3:58 AM 34.9 °F 32.0 °F 25.9 °F 70% 30.16 in 10.0 mi ENE 3.5 mph - N/A   Clear
4:58 AM 33.8 °F - 25.3 °F 71% 30.17 in 10.0 mi ENE 2.3 mph - N/A   Clear
5:58 AM 34.3 °F 30.2 °F 26.6 °F 73% 30.19 in 10.0 mi ENE 4.6 mph - N/A   Clear
6:58 AM 35.2 °F 31.2 °F 27.3 °F 73% 30.21 in 10.0 mi East 4.6 mph - N/A   Clear
7:58 AM 33.4 °F 28.1 °F 26.4 °F 75% 30.24 in 10.0 mi East 5.8 mph - N/A   Clear
8:58 AM 35.4 °F 29.7 °F 27.7 °F 73% 30.25 in 10.0 mi East 6.9 mph - N/A   Clear
9:58 AM 43.9 °F 39.3 °F 30.0 °F 58% 30.26 in 10.0 mi East 8.1 mph - N/A   Clear
10:58 AM 51.3 °F - 31.3 °F 46% 30.26 in 10.0 mi ESE 6.9 mph - N/A   Clear
11:58 AM 55.4 °F - 33.4 °F 43% 30.26 in 10.0 mi East 2.3 mph - N/A   Clear
12:58 PM 58.6 °F - 34.3 °F 40% 30.25 in 10.0 mi Variable 1.2 mph - N/A   Clear
1:58 PM 61.5 °F - 34.2 °F 36% 30.22 in 10.0 mi Variable 3.5 mph - N/A   Clear
2:58 PM 65.1 °F - 32.2 °F 29% 30.21 in 10.0 mi WNW 3.5 mph - N/A   Clear
3:58 PM 67.5 °F - 32.7 °F 28% 30.20 in 10.0 mi NW 6.9 mph - N/A   Clear
4:58 PM 67.3 °F - 34.5 °F 30% 30.19 in 10.0 mi SW 6.9 mph - N/A   Clear
5:58 PM 65.5 °F - 33.6 °F 31% 30.19 in 10.0 mi WSW 8.1 mph - N/A   Clear
6:58 PM 57.6 °F - 33.1 °F 40% 30.22 in 10.0 mi NW 5.8 mph - N/A   Clear
7:58 PM 50.5 °F - 31.3 °F 48% 30.24 in 10.0 mi NNW 6.9 mph - N/A   Clear
8:58 PM 48.7 °F - 32.5 °F 54% 30.25 in 10.0 mi NNW 6.9 mph - N/A   Clear
9:58 PM 46.2 °F - 31.6 °F 57% 30.24 in 10.0 mi Calm Calm - N/A   Clear
10:58 PM 41.4 °F - 30.6 °F 65% 30.25 in 10.0 mi Calm Calm - N/A   Clear
11:58 PM 41.0 °F - 27.5 °F 59% 30.24 in 10.0 mi Calm Calm - N/A   Clear